Regional Weather Roundup
Issued by NWS Bismarck, ND

Home | Current Version | Previous Version | Text Only | Print | Product List | Glossary On
Versions: 1 2 3 4 5 6 7 8 9 10 11 12 13 14 15 16 17 18 19 20 21 22 23 24 25 26 27 28 29 30 31 32 33 34 35 36 37 38 39 40 41 42 43 44 45 46 47 48 49 50
000
ASUS43 KBIS 030401
RWRBIS

NWR BROADCAST TEXT
NATIONAL WEATHER SERVICE BISMARCK ND
1000 PM CST MON MAR 02 2015

NOTE: "FAIR" INDICATES FEW OR NO CLOUDS BELOW 12,000 FEET WITH NO
SIGNIFICANT WEATHER AND/OR OBSTRUCTIONS TO VISIBILITY.


CITY           SKY/WX    TMP DP  RH WIND       PRES   REMARKS
WILLISTON      FLURRIES  17   9  70 N23G29    29.93R WCI  -1
MINOT          FLURRIES  18  11  74 W26G33    29.81R WCI  -1
MINOT AFB      FAIR      17  14  89 NW28      29.79R WCI  -2
BISMARCK       FAIR      27  23  85 NW6       29.74R
DICKINSON      CLOUDY    23  16  74 NW28G35   29.78R WCI   6
GARRISON         N/A     19  13  77 NW30G41   29.79R WCI   0
HETTINGER ARPT FAIR      31  16  54 N20G25    29.73R WCI  19
JAMESTOWN      FAIR      26  18  71 S15       29.73F WCI  14
CARRINGTON     FAIR      25  23  93 MISG      29.73F
CROSBY         MOCLDY    14   9  79 NW25G43   29.89R WCI  -5
HAZEN          FAIR      25  18  74 NW21G35   29.81R WCI  10
OAKES            N/A     27  21  80 S18G26    29.78F WCI  13
$$

CITY           SKY/WX    TMP DP  RH WIND       PRES   REMARKS
GRAND FORKS    FAIR      25  18  74 S20       29.80F WCI  11
GRAND FORKS AF FAIR      25  17  74 S15       29.78F WCI  12
DEVILS LAKE    FAIR      25  18  74 SW7       29.71F WCI  17
FARGO          FAIR      27  17  66 S25G35    29.83F WCI  12
GWINNER        CLEAR     30  21  69 S16       29.82F WCI  19
$$

CITY           SKY/WX    TMP DP  RH WIND       PRES   REMARKS
ABERDEEN       FAIR      29  20  69 S22G30    29.80F WCI  15
MOBRIDGE       FAIR      35  19  52 S12       29.68F
BUFFALO          N/A     32  20  61 N24G32    29.65S WCI  19
RAPID CITY     CLOUDY    37  20  50 N14       29.68R
GLASGOW        CLOUDY    18   8  65 NW20      30.01R WCI   2
SIDNEY         FAIR      19  10  68 NW20G26   29.97R WCI   4
WOLF POINT     CLOUDY    20  10  65 N12       30.01R WCI   8
GLENDIVE       CLOUDY    19  12  73 N16       29.93R WCI   5
MILES CITY     CLOUDY    22  12  65 N22G31    29.91S WCI   6
BAKER          CLOUDY    24  17  74 N24G31    29.82R WCI   8
$$

CITY           SKY/WX    TMP DP  RH WIND       PRES   REMARKS
BILLINGS       LGT SNOW  20  17  88 NE17      29.91R VSB 1   WCI   5
GREAT FALLS    LGT SNOW  17  14  88 NE9       30.06S FOG     WCI   6
ESTEVAN        FLURRIES  12   9  85 NW30G38   29.86R WCI  -9
$$



USA.gov is the U.S. government's official web portal to all federal, state and local government web resources and services.